Tracking 22882 objects as of 18-Apr-2021
HD Live streaming from Space Station
objects crossing your sky now

RADUGA 1-7

Track RADUGA 1-7 now!
RADUGA 1-7 is classified as:


NORAD ID: 28194
Int'l Code: 2004-010A
Perigee: 35,773.7 km
Apogee: 35,793.5 km
Inclination: 11.5 °
Period: 1,435.6 minutes
Semi major axis: 42154 km
RCS: 12.5893 m2 (large)
Launch date: March 27, 2004
Source: Commonwealth of Independent States (former USSR) (CIS)
Launch site: TYURATAM MISSILE AND SPACE COMPLEX (TTMTR)

Military communication.
aabbcc
Your satellite tracking list
Your tracking list is empty




NASA's NSSDC Master Catalog

Two Line Element Set (TLE):
1 28194U 04010A   21106.98521639  .00000119  00000-0  00000-0 0  9993
2 28194  11.4769  34.7496 0002353 336.5074 210.5764  1.00307991 62483
Source of the keplerian elements: AFSPC